LAN1498 VMMC-RCTP

Flight info

Callsign LAN1498
Flight time 1h 14m
Altitude 37000
Route CONGA V631 ENVAR M750 EXTRA/N0486F290 M750 TONGA TONGA1A
Aircraft A320/M-SDE3FGHIRWY/LB1

Departure

Time 2026-05-03 23:40
Airport Macau International Airport (VMMC)

Arrival

Time 2026-05-04 00:54
Airport Taiwan Taoyuan International Airport (RCTP)
Time Latitude Longitude Altitude Speed Heading
2026-05-03 23:19 22.15744 113.57560 29 ft 0 kts 302°
2026-05-03 23:19 22.15743 113.57560 29 ft 0 kts 302°
2026-05-03 23:29 22.15736 113.57573 29 ft 2 kts 302°
2026-05-03 23:29 22.15729 113.57585 29 ft 2 kts 302°
2026-05-03 23:30 22.15722 113.57598 29 ft 2 kts 302°
2026-05-03 23:30 22.15715 113.57611 29 ft 2 kts 285°
2026-05-03 23:30 22.15712 113.57625 29 ft 2 kts 278°
2026-05-03 23:30 22.15711 113.57639 29 ft 2 kts 227°
2026-05-03 23:31 22.15714 113.57643 29 ft 0 kts 208°
2026-05-03 23:32 22.15692 113.57630 29 ft 7 kts 211°
2026-05-03 23:32 22.15653 113.57606 29 ft 7 kts 202°
2026-05-03 23:32 22.15603 113.57623 29 ft 9 kts 136°
2026-05-03 23:32 22.15564 113.57685 29 ft 11 kts 124°
2026-05-03 23:33 22.15514 113.57762 29 ft 14 kts 123°
2026-05-03 23:33 22.15457 113.57855 29 ft 16 kts 123°
2026-05-03 23:33 22.15400 113.57948 29 ft 14 kts 123°
2026-05-03 23:33 22.15346 113.58033 29 ft 15 kts 124°
2026-05-03 23:34 22.15285 113.58134 29 ft 18 kts 124°
2026-05-03 23:34 22.15214 113.58247 29 ft 17 kts 123°
2026-05-03 23:34 22.15150 113.58351 29 ft 16 kts 123°
2026-05-03 23:34 22.15090 113.58450 29 ft 17 kts 123°
2026-05-03 23:35 22.15024 113.58557 29 ft 18 kts 122°
2026-05-03 23:35 22.14954 113.58670 29 ft 19 kts 123°
2026-05-03 23:35 22.14880 113.58791 29 ft 20 kts 123°
2026-05-03 23:35 22.14802 113.58917 29 ft 21 kts 124°
2026-05-03 23:36 22.14720 113.59033 29 ft 17 kts 152°
2026-05-03 23:36 22.14613 113.59075 28 ft 16 kts 157°
2026-05-03 23:36 22.14509 113.59116 28 ft 16 kts 161°
2026-05-03 23:36 22.14399 113.59156 28 ft 17 kts 161°
2026-05-03 23:37 22.14281 113.59200 28 ft 18 kts 161°
2026-05-03 23:37 22.14160 113.59246 28 ft 19 kts 162°
2026-05-03 23:37 22.14024 113.59296 28 ft 21 kts 161°
2026-05-03 23:37 22.13883 113.59347 28 ft 22 kts 162°
2026-05-03 23:38 22.13734 113.59401 28 ft 22 kts 161°
2026-05-03 23:38 22.13650 113.59477 28 ft 12 kts 90°
2026-05-03 23:38 22.13664 113.59528 28 ft 10 kts 71°
2026-05-03 23:38 22.13689 113.59578 29 ft 6 kts 38°
2026-05-03 23:39 22.13731 113.59588 29 ft 7 kts 348°
2026-05-03 23:39 22.13816 113.59558 31 ft 35 kts 341°
2026-05-03 23:39 22.14277 113.59393 29 ft 102 kts 342°
2026-05-03 23:39 22.15120 113.59087 31 ft 151 kts 342°
2026-05-03 23:40 22.16139 113.58728 621 ft 153 kts 344°
2026-05-03 23:40 22.17503 113.58248 1401 ft 164 kts 353°
2026-05-03 23:40 22.18161 113.58269 1561 ft 174 kts 16°
2026-05-03 23:40 22.19294 113.58885 1901 ft 192 kts 30°
2026-05-03 23:41 22.20479 113.59618 2388 ft 202 kts 29°
2026-05-03 23:41 22.21715 113.60377 3130 ft 205 kts 28°
2026-05-03 23:41 22.22986 113.61156 3785 ft 215 kts 27°
2026-05-03 23:41 22.24309 113.61966 4467 ft 223 kts 27°
2026-05-03 23:42 22.25676 113.62804 5111 ft 229 kts 27°
2026-05-03 23:42 22.27079 113.63658 5817 ft 233 kts 26°
2026-05-03 23:42 22.28475 113.64573 6510 ft 240 kts 34°
2026-05-03 23:42 22.29856 113.65750 6833 ft 265 kts 36°
2026-05-03 23:43 22.31359 113.67042 7194 ft 287 kts 36°
2026-05-03 23:43 22.32930 113.68445 7831 ft 298 kts 42°
2026-05-03 23:43 22.34171 113.70268 8580 ft 308 kts 62°
2026-05-03 23:43 22.34839 113.72501 9327 ft 316 kts 77°
2026-05-03 23:44 22.35277 113.74815 10047 ft 322 kts 78°
2026-05-03 23:44 22.35730 113.77209 10724 ft 327 kts 78°
2026-05-03 23:44 22.36192 113.79633 11418 ft 332 kts 78°
2026-05-03 23:44 22.36667 113.82143 11699 ft 354 kts 81°
2026-05-03 23:45 22.36725 113.84877 11847 ft 375 kts 99°
2026-05-03 23:45 22.35981 113.87637 11973 ft 392 kts 118°
2026-05-03 23:45 22.34430 113.90094 12100 ft 404 kts 138°
2026-05-03 23:45 22.32184 113.91951 12355 ft 409 kts 154°
2026-05-03 23:46 22.29712 113.93494 12871 ft 413 kts 154°
2026-05-03 23:46 22.27214 113.95056 13439 ft 417 kts 154°
2026-05-03 23:46 22.24765 113.96657 13951 ft 423 kts 149°
2026-05-03 23:46 22.22487 113.98723 14461 ft 432 kts 139°
2026-05-03 23:47 22.20554 114.01239 14956 ft 440 kts 128°
2026-05-03 23:47 22.18950 114.04071 15392 ft 444 kts 124°
2026-05-03 23:47 22.17368 114.06945 15871 ft 446 kts 124°
2026-05-03 23:47 22.15781 114.09819 16019 ft 446 kts 124°
2026-05-03 23:48 22.14204 114.12663 16041 ft 445 kts 124°
2026-05-03 23:48 22.12654 114.15567 16353 ft 449 kts 122°
2026-05-03 23:48 22.11181 114.18547 16860 ft 451 kts 120°
2026-05-03 23:48 22.09768 114.21566 17328 ft 454 kts 120°
2026-05-03 23:49 22.08186 114.24509 17786 ft 452 kts 128°
2026-05-03 23:49 22.06209 114.27121 18238 ft 449 kts 139°
2026-05-03 23:49 22.03849 114.29314 18629 ft 446 kts 148°
2026-05-03 23:49 22.01330 114.31274 18991 ft 449 kts 149°
2026-05-03 23:50 21.98823 114.33223 19333 ft 452 kts 149°
2026-05-03 23:50 21.96426 114.35093 19655 ft 455 kts 148°
2026-05-03 23:50 21.93854 114.37107 19989 ft 458 kts 148°
2026-05-03 23:50 21.91279 114.39131 20304 ft 461 kts 148°
2026-05-03 23:51 21.88706 114.41298 20645 ft 467 kts 142°
2026-05-03 23:51 21.86504 114.43844 20969 ft 475 kts 132°
2026-05-03 23:51 21.84647 114.46883 21291 ft 483 kts 122°
2026-05-03 23:51 21.83308 114.50173 21593 ft 491 kts 111°
2026-05-03 23:52 21.82359 114.53725 21889 ft 495 kts 108°
2026-05-03 23:52 21.81444 114.57302 22178 ft 498 kts 108°
2026-05-03 23:52 21.80521 114.60897 22451 ft 500 kts 108°
2026-05-03 23:52 21.79583 114.64513 22748 ft 502 kts 109°
2026-05-03 23:53 21.78642 114.68124 23090 ft 502 kts 109°
2026-05-03 23:53 21.77698 114.71752 23370 ft 504 kts 109°
2026-05-03 23:53 21.76751 114.75395 23617 ft 506 kts 109°
2026-05-03 23:53 21.75797 114.79056 23821 ft 509 kts 109°
2026-05-03 23:54 21.74896 114.82742 24031 ft 512 kts 104°
2026-05-03 23:54 21.74407 114.86561 24233 ft 518 kts 96°
2026-05-03 23:54 21.74358 114.90448 24434 ft 521 kts 91°
2026-05-03 23:54 21.74373 114.94358 24653 ft 523 kts 91°
2026-05-03 23:55 21.74379 114.98269 24878 ft 524 kts 92°
2026-05-03 23:55 21.74379 115.02205 25046 ft 527 kts 92°
2026-05-03 23:55 21.74373 115.06152 25289 ft 528 kts 92°
2026-05-03 23:55 21.74364 115.10095 25602 ft 527 kts 92°
2026-05-03 23:56 21.74355 115.14028 25897 ft 527 kts 92°
2026-05-03 23:56 21.74346 115.17980 26199 ft 527 kts 92°
2026-05-03 23:56 21.74340 115.21928 26494 ft 527 kts 91°
2026-05-03 23:56 21.74334 115.25862 26792 ft 527 kts 91°
2026-05-03 23:57 21.74326 115.29814 27101 ft 527 kts 91°
2026-05-03 23:57 21.74320 115.33748 27393 ft 527 kts 91°
2026-05-03 23:57 21.74312 115.37695 27719 ft 527 kts 91°
2026-05-03 23:57 21.74301 115.41637 28029 ft 527 kts 91°
2026-05-03 23:58 21.74288 115.45580 28346 ft 527 kts 91°
2026-05-03 23:58 21.74276 115.49523 28661 ft 527 kts 91°
2026-05-03 23:58 21.74264 115.53478 28983 ft 527 kts 91°
2026-05-03 23:58 21.74254 115.57411 29304 ft 527 kts 91°
2026-05-03 23:59 21.74240 115.61362 29627 ft 527 kts 91°
2026-05-03 23:59 21.74221 115.65311 29946 ft 527 kts 91°
2026-05-03 23:59 21.74201 115.69238 30271 ft 527 kts 91°
2026-05-03 23:59 21.74180 115.73178 30584 ft 526 kts 91°
2026-05-04 00:00 21.74161 115.77109 30895 ft 525 kts 91°
2026-05-04 00:00 21.74144 115.81027 31195 ft 524 kts 91°
2026-05-04 00:00 21.74125 115.84886 31512 ft 523 kts 91°
2026-05-04 00:00 21.74108 115.88791 31832 ft 522 kts 91°
2026-05-04 00:01 21.74092 115.92689 32158 ft 521 kts 91°
2026-05-04 00:01 21.74073 115.96579 32488 ft 519 kts 91°
2026-05-04 00:01 21.74051 116.00514 32822 ft 518 kts 91°
2026-05-04 00:01 21.74026 116.04391 33139 ft 517 kts 91°
2026-05-04 00:02 21.74002 116.08207 33454 ft 517 kts 91°
2026-05-04 00:02 21.73976 116.12063 33769 ft 516 kts 91°
2026-05-04 00:02 21.73950 116.15919 34077 ft 515 kts 91°
2026-05-04 00:02 21.73922 116.19773 34351 ft 515 kts 91°
2026-05-04 00:03 21.73893 116.23622 34623 ft 514 kts 91°
2026-05-04 00:03 21.73865 116.27465 34886 ft 514 kts 91°
2026-05-04 00:03 21.73836 116.31294 35184 ft 512 kts 91°
2026-05-04 00:03 21.73806 116.35131 35448 ft 512 kts 91°
2026-05-04 00:04 21.73778 116.38960 35690 ft 512 kts 91°
2026-05-04 00:04 21.73751 116.42791 35923 ft 511 kts 91°
2026-05-04 00:04 21.73721 116.46612 36153 ft 511 kts 91°
2026-05-04 00:04 21.73688 116.50431 36376 ft 511 kts 91°
2026-05-04 00:05 21.73652 116.54252 36584 ft 511 kts 91°
2026-05-04 00:05 21.73611 116.58075 36805 ft 511 kts 91°
2026-05-04 00:05 21.73570 116.61900 36983 ft 511 kts 91°
2026-05-04 00:05 21.73530 116.65738 37035 ft 514 kts 91°
2026-05-04 00:06 21.73457 116.73453 37033 ft 516 kts 90°
2026-05-04 00:06 21.74459 116.81077 37027 ft 517 kts 72°
2026-05-04 00:07 21.76975 116.88308 37024 ft 517 kts 67°
2026-05-04 00:07 21.79586 116.95517 37029 ft 517 kts 67°
2026-05-04 00:08 21.82190 117.02741 37033 ft 518 kts 67°
2026-05-04 00:08 21.84791 117.09965 37041 ft 518 kts 67°
2026-05-04 00:09 21.87403 117.17208 37049 ft 519 kts 67°
2026-05-04 00:09 21.90007 117.24444 37045 ft 518 kts 67°
2026-05-04 00:10 21.92610 117.31677 37045 ft 517 kts 67°
2026-05-04 00:10 21.95197 117.38896 37056 ft 518 kts 67°
2026-05-04 00:11 21.97793 117.46150 37034 ft 519 kts 67°
2026-05-04 00:11 22.00928 117.53095 37028 ft 515 kts 56°
2026-05-04 00:12 22.04658 117.59634 37029 ft 515 kts 56°
2026-05-04 00:12 22.08392 117.66220 37028 ft 515 kts 56°
2026-05-04 00:13 22.12153 117.72842 37031 ft 515 kts 56°
2026-05-04 00:13 22.15866 117.79403 37043 ft 515 kts 56°
2026-05-04 00:14 22.19597 117.86003 37027 ft 516 kts 56°
2026-05-04 00:14 22.23326 117.92628 37023 ft 516 kts 56°
2026-05-04 00:15 22.27061 117.99256 37023 ft 517 kts 56°
2026-05-04 00:15 22.30843 118.05855 37029 ft 517 kts 55°
2026-05-04 00:16 22.34699 118.12405 37033 ft 516 kts 54°
2026-05-04 00:16 22.38544 118.18956 37045 ft 517 kts 54°
2026-05-04 00:17 22.42359 118.25544 37026 ft 517 kts 55°
2026-05-04 00:17 22.46115 118.32184 37018 ft 518 kts 56°
2026-05-04 00:18 22.49826 118.38807 37012 ft 518 kts 56°
2026-05-04 00:18 22.53575 118.45467 37023 ft 518 kts 56°
2026-05-04 00:19 22.57335 118.52116 37034 ft 518 kts 56°
2026-05-04 00:19 22.61116 118.58761 37032 ft 518 kts 55°
2026-05-04 00:20 22.64906 118.65383 37039 ft 518 kts 55°
2026-05-04 00:20 22.68690 118.72016 37038 ft 518 kts 56°
2026-05-04 00:21 22.72458 118.78664 37042 ft 518 kts 56°
2026-05-04 00:21 22.76223 118.85312 37041 ft 517 kts 56°
2026-05-04 00:22 22.79985 118.91954 37052 ft 517 kts 56°
2026-05-04 00:22 22.83751 118.98600 37031 ft 518 kts 56°
2026-05-04 00:23 22.87516 119.05256 37027 ft 518 kts 56°
2026-05-04 00:23 22.91268 119.11915 37032 ft 517 kts 56°
2026-05-04 00:24 22.95017 119.18577 37025 ft 517 kts 56°
2026-05-04 00:24 22.98139 119.24118 37026 ft 517 kts 56°
2026-05-04 00:25 23.02494 119.31864 37029 ft 518 kts 56°
2026-05-04 00:25 23.05633 119.37462 37015 ft 518 kts 56°
2026-05-04 00:26 23.09383 119.44155 37011 ft 519 kts 56°
2026-05-04 00:26 23.13131 119.50844 36922 ft 519 kts 56°
2026-05-04 00:27 23.15017 119.54173 36580 ft 515 kts 56°
2026-05-04 00:27 23.16896 119.57468 36811 ft 512 kts 55°
2026-05-04 00:27 23.18773 119.60756 36971 ft 513 kts 55°
2026-05-04 00:27 23.20653 119.64052 37009 ft 512 kts 55°
2026-05-04 00:28 23.24411 119.70669 37014 ft 515 kts 55°
2026-05-04 00:28 23.28179 119.77310 37009 ft 516 kts 55°
2026-05-04 00:29 23.31925 119.83908 37000 ft 516 kts 55°
2026-05-04 00:29 23.35696 119.90525 37007 ft 515 kts 55°
2026-05-04 00:30 23.39473 119.97144 37004 ft 515 kts 55°
2026-05-04 00:30 23.43256 120.03783 37020 ft 516 kts 55°
2026-05-04 00:31 23.47025 120.10431 37011 ft 517 kts 55°
2026-05-04 00:31 23.50811 120.17081 37007 ft 517 kts 55°
2026-05-04 00:32 23.54613 120.23743 37016 ft 517 kts 55°
2026-05-04 00:32 23.58410 120.30398 37025 ft 517 kts 55°
2026-05-04 00:33 23.64100 120.40383 37031 ft 517 kts 55°
2026-05-04 00:34 23.67896 120.47054 37026 ft 518 kts 55°
2026-05-04 00:34 23.71700 120.53731 36378 ft 519 kts 55°
2026-05-04 00:34 23.73630 120.57037 35593 ft 520 kts 51°
2026-05-04 00:35 23.76018 120.59957 34883 ft 514 kts 36°
2026-05-04 00:35 23.78943 120.62139 34745 ft 508 kts 21°
2026-05-04 00:35 23.82165 120.63540 35009 ft 497 kts
2026-05-04 00:35 23.85512 120.64135 35285 ft 482 kts 355°
2026-05-04 00:36 23.88811 120.64117 34970 ft 476 kts 351°
2026-05-04 00:36 23.92137 120.64019 34219 ft 478 kts 351°
2026-05-04 00:36 23.95450 120.63889 33118 ft 476 kts 351°
2026-05-04 00:36 23.98772 120.63741 31521 ft 482 kts 351°
2026-05-04 00:37 24.02103 120.63588 29998 ft 493 kts 351°
2026-05-04 00:37 24.05564 120.63435 28682 ft 501 kts 352°
2026-05-04 00:37 24.09072 120.63292 27457 ft 506 kts 352°
2026-05-04 00:37 24.12572 120.63162 26226 ft 513 kts 352°
2026-05-04 00:38 24.16182 120.63039 25193 ft 511 kts 353°
2026-05-04 00:38 24.19734 120.62924 24108 ft 510 kts 353°
2026-05-04 00:38 24.23182 120.62816 22855 ft 495 kts 353°
2026-05-04 00:38 24.26630 120.62702 21374 ft 484 kts 353°
2026-05-04 00:39 24.29896 120.62588 20442 ft 466 kts 353°
2026-05-04 00:39 24.33111 120.62472 19592 ft 448 kts 352°
2026-05-04 00:39 24.36186 120.62357 18765 ft 438 kts 352°
2026-05-04 00:39 24.39174 120.62236 17951 ft 434 kts 352°
2026-05-04 00:40 24.42181 120.62113 17129 ft 430 kts 352°
2026-05-04 00:40 24.45180 120.61993 16387 ft 432 kts 352°
2026-05-04 00:40 24.48178 120.61875 15647 ft 431 kts 352°
2026-05-04 00:40 24.51182 120.61760 14925 ft 431 kts 352°
2026-05-04 00:41 24.54166 120.61647 14216 ft 430 kts 352°
2026-05-04 00:41 24.57158 120.61535 13494 ft 428 kts 353°
2026-05-04 00:41 24.60124 120.61430 12806 ft 424 kts 353°
2026-05-04 00:41 24.63067 120.61401 12126 ft 425 kts 359°
2026-05-04 00:42 24.65991 120.61938 11486 ft 428 kts 12°
2026-05-04 00:42 24.68723 120.63144 11289 ft 418 kts 24°
2026-05-04 00:42 24.71126 120.64864 11165 ft 405 kts 36°
2026-05-04 00:42 24.73201 120.66871 11044 ft 390 kts 39°
2026-05-04 00:43 24.75183 120.68821 10924 ft 375 kts 39°
2026-05-04 00:43 24.77099 120.70699 10801 ft 362 kts 38°
2026-05-04 00:43 24.78929 120.72488 10574 ft 343 kts 39°
2026-05-04 00:43 24.80683 120.74206 10240 ft 332 kts 39°
2026-05-04 00:44 24.82402 120.75891 10093 ft 333 kts 38°
2026-05-04 00:44 24.84137 120.77595 9953 ft 332 kts 39°
2026-05-04 00:44 24.85852 120.79283 9622 ft 329 kts 39°
2026-05-04 00:44 24.87559 120.80964 8810 ft 330 kts 40°
2026-05-04 00:45 24.89247 120.82631 8243 ft 324 kts 40°
2026-05-04 00:45 24.90618 120.84533 8072 ft 304 kts 64°
2026-05-04 00:45 24.91236 120.86625 7838 ft 285 kts 86°
2026-05-04 00:45 24.91168 120.88749 7364 ft 271 kts 109°
2026-05-04 00:46 24.90715 120.90734 6977 ft 267 kts 107°
2026-05-04 00:46 24.90268 120.92734 6575 ft 271 kts 106°
2026-05-04 00:46 24.89830 120.94736 6325 ft 266 kts 108°
2026-05-04 00:46 24.89408 120.96688 5867 ft 261 kts 109°
2026-05-04 00:47 24.89078 120.98639 5377 ft 260 kts 94°
2026-05-04 00:47 24.89346 121.00582 4965 ft 256 kts 70°
2026-05-04 00:47 24.90230 121.02238 4561 ft 249 kts 51°
2026-05-04 00:47 24.91350 121.03645 4195 ft 239 kts 51°
2026-05-04 00:48 24.92407 121.04978 3872 ft 227 kts 52°
2026-05-04 00:48 24.93381 121.06202 3782 ft 198 kts 53°
2026-05-04 00:48 24.94237 121.07278 3732 ft 176 kts 52°
2026-05-04 00:48 24.95011 121.08256 3449 ft 164 kts 54°
2026-05-04 00:49 24.95718 121.09155 3171 ft 153 kts 54°
2026-05-04 00:49 24.96394 121.10013 2920 ft 142 kts 54°
2026-05-04 00:49 24.97025 121.10813 2682 ft 135 kts 54°
2026-05-04 00:49 24.97635 121.11589 2458 ft 133 kts 54°
2026-05-04 00:50 24.98232 121.12350 2240 ft 131 kts 53°
2026-05-04 00:50 24.98829 121.13108 2028 ft 130 kts 54°
2026-05-04 00:50 24.99417 121.13857 1826 ft 129 kts 53°
2026-05-04 00:50 25.00003 121.14604 1626 ft 128 kts 53°
2026-05-04 00:51 25.00586 121.15347 1587 ft 129 kts 53°
2026-05-04 00:51 25.01175 121.16095 1532 ft 129 kts 51°
2026-05-04 00:51 25.01763 121.16843 1484 ft 129 kts 51°
2026-05-04 00:51 25.02352 121.17592 1317 ft 129 kts 50°
2026-05-04 00:52 25.02935 121.18346 1123 ft 129 kts 50°
2026-05-04 00:52 25.03524 121.19097 908 ft 129 kts 51°
2026-05-04 00:52 25.04136 121.19877 741 ft 137 kts 49°
2026-05-04 00:52 25.04757 121.20659 528 ft 134 kts 49°
2026-05-04 00:53 25.05363 121.21445 353 ft 133 kts 51°
2026-05-04 00:53 25.05953 121.22173 205 ft 127 kts 50°
2026-05-04 00:53 25.06513 121.22912 96 ft 123 kts 52°
2026-05-04 00:53 25.06929 121.23444 97 ft 51 kts 47°
2026-05-04 00:54 25.07068 121.23607 93 ft 26 kts 39°
2026-05-04 00:54 25.07212 121.23709 95 ft 14 kts 27°
2026-05-04 00:54 25.07297 121.23734 97 ft 13 kts 18°
2026-05-04 00:54 25.07367 121.23730 98 ft 8 kts 335°
2026-05-04 00:55 25.07404 121.23721 101 ft 4 kts 32°
2026-05-04 00:55 25.07429 121.23742 99 ft 6 kts 41°
2026-05-04 00:55 25.07463 121.23779 100 ft 8 kts 32°
2026-05-04 00:55 25.07524 121.23765 100 ft 10 kts 328°
2026-05-04 00:56 25.07577 121.23718 100 ft 9 kts 319°
2026-05-04 00:56 25.07633 121.23684 101 ft 9 kts 344°
2026-05-04 00:56 25.07692 121.23646 101 ft 10 kts 318°
2026-05-04 00:56 25.07735 121.23604 101 ft 0 kts 320°
2026-05-04 00:57 25.07738 121.23602 100 ft 0 kts 320°